Regional Weather Roundup
Issued by NWS State College, PA

Home | Current Version | Previous Version | Text Only | Print | Product List | Glossary On
Versions: 1 2 3 4 5 6 7 8 9 10 11 12 13 14 15 16 17 18 19 20 21 22 23 24 25 26 27 28 29 30 31 32 33 34 35 36 37 38 39 40 41 42 43 44 45 46 47 48 49 50
000
ASUS41 KCTP 260610
RWRCTP

REGIONAL WEATHER ROUNDUP
NATIONAL WEATHER SERVICE STATE COLLEGE PA
200 AM EDT TUE JUL 26 2016

Note: "fair" indicates few or no clouds below 12,000 feet with no
significant weather and/or obstructions to visibility.

* = STATION THAT DOES NOT REPORT PRECIPITATION /E.G. RAIN...SNOW...ETC/
    THUNDER OR FOG.

PAZ002>004-007>009-013>016-020>023-029>032-260700-
WESTERN PENNSYLVANIA

CITY           SKY/WX    TMP DP  RH WIND       PRES   REMARKS
ERIE           PTCLDY    72  68  87 S7        29.95R
MEADVILLE      CLEAR     69  65  86 W6        29.99S
FRANKLIN*      CLEAR     70  64  83 W6        30.02S
NEW CASTLE     FAIR      69  67  93 CALM      29.99F FOG
BEAVER COUNTY  NOT AVBL
BUTLER*        PTCLDY    70  66  88 CALM      30.02S
PITTSBURGH INT MOCLDY    74  69  85 CALM      29.98F
PITTSBURGH     CLEAR     73  69  87 CALM      29.98F
INDIANA*       MOCLDY    72  70  94 CALM      30.03S
LATROBE        MOCLDY    72  72 100 CALM      30.00S
WASHINGTON CO* PTCLDY    70  68  94 CALM      29.99F
$$

PAZ004>006-010>012-017>019-024>028-033>037-041-042-045-046-049>053-260700-
CENTRAL PENNSYLVANIA

CITY           SKY/WX    TMP DP  RH WIND       PRES   REMARKS
BRADFORD       PTCLDY    68  64  87 CALM      30.02R
DUBOIS         CLEAR     68  66  93 CALM      30.00F
CLEARFIELD     FOG       69  67  93 SW3       29.99F VSB 3/4
JOHNSTOWN      PTCLDY    69  65  86 CALM      30.04S
ALTOONA        CLOUDY    71  66  84 SW3       30.00S
STATE COLLEGE  CLOUDY    73  71  93 SW5       29.97F
WILLIAMSPORT   CLOUDY    70  68  93 CALM      29.92F FOG
SELINSGROVE    MOCLDY    69  69 100 CALM      29.94S FOG
FT INDIANTOWN  CLEAR     67  67 100 VRB1      29.93S FOG
CAPITAL CITY   CLEAR     73  70  90 CALM      29.92F
HARRISBURG     PTCLDY    73  72  96 CALM      29.92S
YORK           PTCLDY    71  70  96 CALM      29.93S FOG
$$

PAZ038>040-043-044-047-048-054-055-060>062-067>071-260700-
EASTERN PENNSYLVANIA

CITY           SKY/WX    TMP DP  RH WIND       PRES   REMARKS
SCRANTON       CLEAR     69  67  93 SW7       29.93F
MOUNT POCONO   CLOUDY    64  64 100 NW9       29.96F FOG
ALLENTOWN      CLEAR     68  66  93 W3        29.91F
QUAKERTOWN*    CLEAR     68  68 100 CALM      29.93S
READING        CLEAR     70  67  90 CALM      29.91S
LANCASTER      CLEAR     71  70  96 CALM      29.93S
COATESVILLE    PTCLDY    72  70  94 SW6       29.95R
POTTSTOWN      CLEAR     70  69  97 SW3       29.93S
BLUE BELL      CLEAR     70  70 100 CALM      29.90S
DOYLESTOWN     CLEAR     70  69  97 W3        29.90F
WILLOW GROVE   NOT AVBL
NORTH PHILA    CLEAR     74  73  97 W7        29.91S
PHILADELPHIA   PTCLDY    76  73  91 SW8       29.91S
$$



USA.gov is the U.S. government's official web portal to all federal, state and local government web resources and services.